Temp
75 75 75 74 75 76 77 78 78 76 77 76 77 77 77 77 75 75 74 73 73 76
73 73 73 72 72 74 74 78 77 78 75 71 63 69 75 75 74 72 73 71 73 74
72 72 72 71 71 72 73 75 76 77 77 72 71 71 74 73 72 70 69 71 71 72
71 72 71 70 69 69 67 72 75 76 77 76 75 75 70 70 68 67 66 69 70 72
71 71 69 68 67 65 64 63 61 66 74 77 75 70 66 66 69 69 69 71 71 71
69 69 67 67 66 66 64 61 60 59 60 63 75 71 68 69 67 64 72 73 72 71
66 66 67 67 66 65 64 60 58 58 60 59 73 75 73 73 72 73 74 73 72 72
66 66 66 66 66 65 63 61 60 59 59 60 60 78 75 75 73 72 72 71 73 71
67 67 65 64 64 64 61 61 60 59 59 59 59 52 54 60 71 72 71 69 70 64
66 66 65 65 65 64 61 59 57 59 59 60 60 52 50 51 69 69 69 67 67 68
65 64 63 62 62 61 61 59 59 59 60 60 62 49 50 48 58 67 68 67 67 66
60 60 60 60 58 59 60 59 59 62 61 59 62 50 53 56 59 59 66 69 69 68
58 57 57 57 57 58 59 58 60 61 63 59 63 49 50 57 60 57 63 67 67 58
56 55 57 56 56 56 57 58 56 60 61 62 62 57 48 50 61 60 64 68 68 69
MSLP
1003.77 1003.75 1003.50 1003.15 1002.76 1002.28 1001.67 1000.89 999.35 998.51 999.19 999.06 998.57 999.87 1001.25 1002.07 1002.78 1003.44 1003.17 1003.91 1004.62 1005.07
1003.74 1003.48 1003.05 1002.73 1002.48 1002.08 1001.60 1000.70 999.93 998.33 998.75 1001.07 1002.43 1004.54 1002.57 1001.27 1001.91 1002.55 1002.44 1003.30 1003.67 1004.23
1003.44 1003.17 1002.81 1002.69 1002.28 1001.73 1001.25 1000.86 1000.28 998.83 998.19 999.92 1000.09 1001.91 1000.91 1000.77 1001.16 1001.61 1002.01 1002.83 1002.73 1003.32
1003.37 1003.02 1002.73 1002.51 1002.47 1002.29 1001.83 1000.99 1000.07 999.10 998.28 998.19 998.87 999.42 1000.18 1001.32 1000.84 1001.23 1002.32 1003.65 1001.66 1002.68
1003.14 1002.89 1002.73 1002.51 1002.38 1002.55 1002.29 1001.83 1001.80 1000.89 998.98 998.50 997.63 998.05 1000.00 1000.43 1000.71 1001.86 1002.74 1002.84 1002.33 1001.91
1002.89 1002.65 1002.35 1002.24 1002.09 1002.19 1002.13 1001.79 1001.49 1001.36 1000.60 1000.41 997.87 997.18 997.63 998.48 1000.33 1001.86 1002.23 1001.13 1001.06 1001.58
1002.73 1002.61 1002.29 1001.90 1001.77 1001.92 1002.03 1001.73 1000.80 1000.49 1000.35 999.86 994.88 996.37 997.42 998.11 999.14 999.99 1000.33 1000.01 1000.32 1001.14
1002.25 1002.35 1002.18 1001.85 1001.30 1001.37 1001.60 1001.47 1000.50 999.99 1000.47 1000.73 999.02 996.39 997.20 998.14 998.87 999.47 999.95 1000.21 1000.47 1000.80
1001.41 1001.60 1001.52 1001.37 1001.17 1000.73 1000.98 1000.93 1000.21 999.73 1000.02 1000.48 999.17 1000.05 997.44 998.71 997.40 998.74 999.45 1000.35 1000.83 1001.55
1000.88 1000.71 1000.61 1000.49 1000.33 1000.28 1000.23 1000.18 1000.03 999.90 999.15 1000.32 1000.49 999.87 999.73 999.79 998.24 999.35 999.55 1000.50 1001.13 1001.78
1000.39 1000.27 1000.53 1000.12 1000.05 999.67 999.59 999.74 999.21 999.07 998.79 999.20 999.37 999.25 999.34 999.99 999.88 999.74 999.77 1000.53 1001.10 1001.70
1000.06 1000.09 1000.16 999.58 999.51 999.42 999.13 998.94 998.81 998.51 999.04 999.18 999.63 999.46 998.74 999.07 999.50 999.98 999.80 1000.32 1000.82 1001.25
999.82 999.65 999.60 999.13 999.07 998.97 998.87 998.22 997.97 997.66 997.31 998.07 999.28 999.39 998.70 998.56 998.96 1000.08 1000.49 1000.30 1000.67 1001.00
998.80 998.53 998.44 998.39 998.41 998.50 998.22 998.04 997.95 997.39 997.15 997.29 997.29 998.12 998.40 998.35 998.89 1000.05 1000.53 999.85 1000.43 1000.76
Wind_Speed
5 6 8 9 10 10 11 13 18 14 17 24 20 14 15 12 12 16 14 12 9 8
8 9 10 11 11 10 12 12 18 23 9 11 12 26 20 12 15 14 13 13 12 10
6 10 10 8 12 12 13 15 17 18 14 15 23 37 23 15 14 13 10 11 12 12
9 7 10 6 9 10 12 15 15 19 18 12 19 19 11 11 5 4 6 17 9 9
7 7 9 9 8 6 9 11 15 23 22 17 10 7 13 10 15 11 22 24 15 8
8 9 8 12 10 10 7 8 11 14 21 33 21 15 16 22 16 21 27 14 10 8
9 10 12 11 12 12 7 7 7 9 13 28 13 14 18 17 14 14 7 8 9 8
7 10 14 15 12 9 9 6 3 5 9 23 26 7 13 11 8 6 4 5 7 7
11 11 13 14 17 9 9 9 6 7 8 12 18 20 22 20 10 7 7 6 6 7
11 12 13 14 15 17 9 10 10 11 7 11 12 2 13 12 6 6 7 7 6 6
12 13 15 15 16 14 12 12 11 10 11 13 4 8 5 2 5 2 8 8 7 6
13 15 18 16 15 14 14 12 13 12 14 10 11 10 6 2 4 5 5 6 7 7
18 15 19 18 14 12 14 12 11 13 14 10 13 15 11 7 3 1 7 7 7 11
17 17 17 15 13 11 12 12 12 13 12 14 11 13 18 18 8 7 10 9 7 7
Wind_Direction
275 279 275 267 260 264 268 272 280 255 231 214 197 191 205 197 198 203 208 204 203 212
313 307 267 264 274 281 283 275 269 283 246 185 94 279 225 196 202 213 210 201 204 205
315 294 306 326 289 263 268 273 284 279 270 205 181 212 215 209 206 214 228 229 207 208
320 311 312 329 322 336 347 319 280 278 281 251 221 219 222 240 215 127 310 257 216 193
278 302 310 304 308 314 338 341 347 340 293 267 230 191 173 223 242 213 210 219 207 181
306 305 281 292 301 307 339 339 326 332 327 327 244 186 191 192 191 203 236 202 172 175
310 312 303 288 283 287 297 316 331 291 324 299 299 176 190 195 192 196 205 170 162 151
288 300 300 298 278 285 284 262 287 311 310 301 325 234 172 179 163 154 168 142 148 132
254 264 272 285 296 264 269 253 238 240 244 316 324 323 36 322 127 126 118 117 88 108
282 278 270 271 277 288 233 250 229 250 238 240 257 260 50 333 48 114 116 120 122 154
285 281 286 286 290 283 280 237 247 239 252 263 232 167 171 50 47 314 138 150 161 183
288 283 275 278 279 290 283 260 240 241 234 207 265 199 164 151 81 358 169 166 172 162
267 259 261 262 277 280 293 297 279 245 253 222 221 200 180 188 151 243 258 187 188 190
274 257 252 253 253 272 281 287 302 283 249 244 234 188 188 186 186 205 241 192 195 199